Double Island Point Observation History
Time Wind Speed Temp Pressure Rel. Hum Rain
04/05:30am S 30-35 kts 17.8°c 1022.8 hPa 75% 0.0mm
04/05:00am S 27-33 kts 17.7°c 1022.6 hPa 76% 0.0mm
04/04:30am SSE 28-34 kts 18.0°c 1022.2 hPa 75% 0.0mm
04/04:00am SSE 27-34 kts 17.8°c 1022.2 hPa 77% 0.0mm
04/03:30am SSE 25-31 kts 17.9°c 1022.3 hPa 78% 0.0mm
04/03:00am S 24-29 kts 17.7°c 1022.3 hPa 79% 0.0mm
04/02:30am SSE 22-28 kts 18.1°c 1022.6 hPa 81% 0.0mm
04/02:00am S 22-29 kts 17.7°c 1022.7 hPa 82% 0.0mm
04/01:30am S 21-28 kts 17.7°c 1022.8 hPa 79% 0.0mm
04/01:00am SSE 22-29 kts 18.4°c 1023.1 hPa 72% 0.0mm
04/12:30am SE 25-31 kts 18.8°c 1023.1 hPa 64% 0.0mm
04/12:00am SE 27-31 kts 18.8°c 1023.1 hPa 62% 0.0mm
Time Wind Speed Temp Pressure Rel. Hum Rain
03/11:30pm SSE 23-27 kts 18.5°c 1023.2 hPa 68% 0.0mm
03/11:00pm SSE 26-31 kts 18.4°c 1023.4 hPa 62% 0.0mm
03/10:30pm SSE 23-27 kts 18.5°c 1023.5 hPa 65% 0.0mm
03/10:00pm SSE 21-25 kts 18.3°c 1023.5 hPa 64% 0.0mm
03/09:30pm SSE 20-23 kts 18.1°c 1023.6 hPa 64% 0.0mm
03/09:00pm SSE 18-23 kts 17.8°c 1023.4 hPa 59% 0.0mm
03/08:30pm SSE 18-23 kts 17.8°c 1023.3 hPa 63% 0.0mm
03/08:00pm SSE 17-21 kts 17.6°c 1022.7 hPa 60% 0.0mm
03/07:30pm SSE 15-20 kts 17.4°c 1022.6 hPa 59% 0.0mm
03/07:00pm SE 14-18 kts 17.3°c 1022.0 hPa 60% 0.0mm
03/06:30pm SSE 13-17 kts 17.1°c 1021.6 hPa 59% 0.0mm
03/06:00pm SSE 12-15 kts 16.8°c 1021.2 hPa 57% 0.0mm
03/05:30pm SSE 12-16 kts 16.8°c 1020.9 hPa 58% 0.0mm
03/05:00pm SE 14-16 kts 16.7°c 1020.6 hPa 60% 0.0mm
03/04:30pm SSE 13-16 kts 16.6°c 1020.3 hPa 57% 0.0mm
03/04:00pm SSE 12-15 kts 16.4°c 1020.0 hPa 57% 0.0mm
03/03:30pm SE 11-14 kts 16.7°c 1019.6 hPa 56% 0.0mm
03/03:00pm SE 11-14 kts 16.8°c 1019.6 hPa 55% 0.0mm
03/02:30pm SSE 13-16 kts 16.9°c 1019.4 hPa 52% 0.0mm
03/02:00pm SSE 12-15 kts 16.8°c 1019.4 hPa 52% 0.0mm
03/01:30pm SE 11-14 kts 17.0°c 1019.4 hPa 47% 0.0mm
03/01:00pm SSE 11-14 kts 17.2°c 1019.6 hPa 50% 0.0mm
03/12:30pm SE 11-15 kts 17.1°c 1019.7 hPa 51% 0.0mm
03/12:00pm SSE 9-12 kts 17.1°c 1020.4 hPa 49% 0.0mm
03/11:30am SSE 6-10 kts 17.1°c 1021.0 hPa 47% 0.0mm
03/11:00am S 7-11 kts 16.8°c 1021.2 hPa 43% 0.0mm
03/10:30am SE 3-5 kts 17.1°c 1021.7 hPa 45% 0.0mm
03/10:00am S 4-7 kts 16.6°c 1021.7 hPa 45% 0.0mm
03/09:30am SSW 3-5 kts 15.9°c 1021.6 hPa 46% 0.0mm
03/09:00am WSW 2-5 kts 14.7°c 1021.4 hPa 50% 0.0mm
03/08:30am SW 8-11 kts 13.4°c 1021.1 hPa 48% 0.0mm
03/08:00am WSW 10-13 kts 12.2°c 1020.8 hPa 51% 0.0mm
03/07:30am WSW 9-13 kts 11.4°c 1020.8 hPa 53% 0.0mm
03/07:00am WNW 7-9 kts 10.6°c 1020.7 hPa 60% 0.0mm
03/06:30am W 11-13 kts 10.5°c 1020.1 hPa 59% 0.0mm
03/06:00am W 8-11 kts 10.9°c 1020.1 hPa 57% 0.0mm
03/05:30am WSW 11-13 kts 11.2°c 1019.7 hPa 54% 0.0mm
03/05:00am WSW 12-14 kts 10.7°c 1019.3 hPa 54% 0.0mm
03/04:30am WSW 12-16 kts 10.9°c 1019.2 hPa 54% 0.0mm
03/04:00am WSW 12-18 kts 11.2°c 1019.3 hPa 53% 0.0mm
03/03:30am W 13-17 kts 11.5°c 1019.7 hPa 52% 0.0mm
03/03:00am W 11-16 kts 11.8°c 1020.1 hPa 50% 0.0mm
03/02:30am W 10-13 kts 11.9°c 1020.1 hPa 49% 0.0mm
03/02:00am W 11-16 kts 12.3°c 1020.3 hPa 49% 0.0mm
03/01:30am WSW 12-17 kts 12.6°c 1020.2 hPa 47% 0.0mm
03/01:00am W 12-19 kts 13.1°c 1020.7 hPa 43% 0.0mm
03/12:30am WSW 13-16 kts 13.5°c 1020.9 hPa 42% 0.0mm
03/12:00am WSW 10-16 kts 13.6°c 1021.2 hPa 40% 0.0mm
Time Wind Speed Temp Pressure Rel. Hum Rain
02/11:30pm WSW 9-14 kts 14.0°c 1021.4 hPa 39% 0.0mm
02/11:00pm W 8-13 kts 14.4°c 1021.6 hPa 38% 0.0mm
02/10:30pm W 7-13 kts 14.4°c 1021.7 hPa 39% 0.0mm
02/10:00pm WSW 10-14 kts 14.1°c 1021.4 hPa 43% 0.0mm
02/09:30pm W 13-17 kts 14.6°c 1021.3 hPa 43% 0.0mm
02/09:00pm W 12-17 kts 15.3°c 1021.1 hPa 41% 0.0mm
02/08:30pm W 12-15 kts 15.4°c 1020.9 hPa 39% 0.0mm
02/08:00pm WSW 14-19 kts 16.3°c 1020.4 hPa 34% 0.0mm
02/07:30pm WSW 12-17 kts 16.6°c 1020.1 hPa 34% 0.0mm
02/07:00pm WSW 13-17 kts 17.0°c 1019.9 hPa 31% 0.0mm
02/06:30pm WSW 11-16 kts 17.4°c 1019.4 hPa 33% 0.0mm
02/06:00pm WSW 11-14 kts 18.0°c 1018.9 hPa 31% 0.0mm
02/05:30pm SW 8-10 kts 18.3°c 1018.4 hPa 31% 0.0mm
02/05:00pm SW 9-11 kts 18.7°c 1018.1 hPa 30% 0.0mm
02/04:30pm WSW 7-8 kts 19.2°c 1017.7 hPa 28% 0.0mm
02/04:00pm WSW 7-9 kts 19.8°c 1017.3 hPa 31% 0.0mm
02/03:30pm W 6-7 kts 20.2°c 1017.2 hPa 30% 0.0mm
02/03:00pm W 5-7 kts 20.1°c 1017.1 hPa 33% 0.0mm
02/02:30pm WNW 5-7 kts 19.8°c 1017.1 hPa 35% 0.0mm
02/02:00pm W 7-10 kts 19.9°c 1017.1 hPa 34% 0.0mm
02/01:30pm WSW 10-15 kts 19.2°c 1017.5 hPa 33% 0.0mm
02/01:00pm WSW 10-15 kts 19.1°c 1017.8 hPa 34% 0.0mm
02/12:30pm W 7-12 kts 19.1°c 1017.9 hPa 38% 0.0mm
02/12:00pm WSW 9-14 kts 19.3°c 1018.2 hPa 37% 0.0mm
02/11:30am WSW 11-17 kts 19.2°c 1018.5 hPa 37% 0.0mm
02/11:00am WSW 7-11 kts 19.0°c 1018.6 hPa 48% 0.0mm
02/10:30am WSW 9-16 kts 17.8°c 1018.8 hPa 43% 0.0mm
02/10:00am WSW 11-16 kts 17.0°c 1019.1 hPa 49% 0.0mm
02/09:30am SW 9-14 kts 16.5°c 1018.9 hPa 50% 0.0mm
02/09:00am SW 10-18 kts 16.1°c 1018.9 hPa 52% 0.0mm
02/08:30am SW 12-19 kts 15.8°c 1018.9 hPa 52% 0.0mm
02/08:00am SW 8-14 kts 15.7°c 1018.7 hPa 53% 0.0mm
02/07:30am W 5-9 kts 16.0°c 1018.5 hPa 58% 0.0mm
02/07:00am SW 6-10 kts 16.3°c 1018.1 hPa 67% 0.0mm
02/06:30am SW 5-9 kts 16.9°c 1017.7 hPa 78% 0.0mm
02/06:00am SW 8-13 kts 16.9°c 1017.0 hPa 83% 0.0mm
02/05:30am WSW 11-15 kts 17.2°c 1016.7 hPa 95% 0.0mm
02/05:00am WSW 9-13 kts 17.6°c 1016.0 hPa 100% 0.0mm
02/04:30am WNW 10-15 kts 17.9°c 1016.0 hPa 100% 0.0mm
02/04:00am WNW 17-24 kts 18.1°c 1015.7 hPa 100% 0.0mm
02/03:33am WNW 15-25 kts 18.6°c 1015.4 hPa 100% 0.0mm
02/03:30am NW 12-20 kts 18.6°c 1015.5 hPa 100% 0.0mm
02/03:00am NW 11-16 kts 18.6°c 1015.1 hPa 99% 0.0mm
02/02:30am NW 10-12 kts 18.5°c 1015.3 hPa 99% 0.0mm
02/02:00am NW 11-15 kts 18.6°c 1015.5 hPa 99% 0.0mm
02/01:30am NW 12-15 kts 18.7°c 1015.6 hPa 99% 0.0mm
02/01:00am NNW 12-14 kts 18.8°c 1015.7 hPa 99% 0.0mm
02/12:30am NNW 11-15 kts 19.0°c 1016.0 hPa 97% 0.0mm
02/12:00am NNW 12-16 kts 19.2°c 1016.0 hPa 95% 0.0mm